Change the Weather History Date:

Thursday, November 22, 2012

  Actual Average Record
Temperature  
Mean Temperature 44 °F -  
Max Temperature 55 °F 38 °F 61 °F (1974)
Min Temperature 32 °F 21 °F 2 °F (1970)
Degree Days  
Heating Degree Days 21    
Moisture  
Dew Point 35 °F    
Average Humidity 65    
Maximum Humidity 81    
Minimum Humidity 47    
Precipitation  
Precipitation 0.00 in - - ()
Sea Level Pressure  
Sea Level Pressure 29.81 in    
Wind  
Wind Speed 19 mph (West)    
Max Wind Speed 31 mph    
Max Gust Speed 41 mph    
Visibility 10 miles    
Events      
Averages and records for this station are not official NWS values.
T = Trace of Precipitation, MM = Missing Value Source: NWS Daily Summary

Daily Weather History Graph

Daily Weather History Graph

Search for Another Location

Airport or City:

Trip Planner

Search our weather history database for the weather conditions in past years. The results will help you decide how hot, cold, wet, or windy it might be!

Date:

Astronomy

Nov. 22, 2012 Rise Set
Actual Time 7:21 AM CST 4:46 PM CST
Civil Twilight 6:49 AM CST 5:17 PM CST
Nautical Twilight 6:14 AM CST 5:53 PM CST
Astronomical Twilight 5:40 AM CST 6:27 PM CST
Moon 1:40 PM CST (11/22) 1:32 AM CST (11/22)
Length of Visible Light 10h 28m
Length of Day
9h 25m
Waxing Gibbous, 71% of the Moon is Illuminated
Nov 22
Waxing Gibbous
Nov 28
Full
Dec 6
Last Quarter
Dec 13
New
Dec 19
First Quarter

Hourly Weather History & Observations

Time (CST) Temp. Windchill Dew Point Humidity Pressure Visibility Wind Dir Wind Speed Gust Speed Precip Events Conditions
12:15 AM 53.6 °F - 42.8 °F 67% 29.71 in 10.0 mi South 18.4 mph - N/A   Clear
12:35 AM 53.6 °F - 42.8 °F 67% 29.70 in 10.0 mi South 16.1 mph 20.7 mph N/A   Clear
12:55 AM 53.6 °F - 42.8 °F 67% 29.70 in 10.0 mi South 18.4 mph - N/A   Clear
1:15 AM 53.6 °F - 42.8 °F 67% 29.69 in 10.0 mi South 19.6 mph 24.2 mph N/A   Clear
1:35 AM 53.6 °F - 42.8 °F 67% 29.69 in 10.0 mi South 19.6 mph 25.3 mph N/A   Clear
1:55 AM 53.6 °F - 42.8 °F 67% 29.68 in 10.0 mi South 20.7 mph 27.6 mph N/A   Clear
2:15 AM 53.6 °F - 41.0 °F 62% 29.68 in 10.0 mi South 19.6 mph 26.5 mph N/A   Clear
2:35 AM 53.6 °F - 41.0 °F 62% 29.67 in 10.0 mi South 19.6 mph 25.3 mph N/A   Clear
2:55 AM 51.8 °F - 41.0 °F 67% 29.67 in 10.0 mi South 19.6 mph 23.0 mph N/A   Clear
3:15 AM 51.8 °F - 41.0 °F 67% 29.67 in 10.0 mi South 17.3 mph - N/A   Clear
3:35 AM 51.8 °F - 41.0 °F 67% 29.66 in 10.0 mi South 17.3 mph - N/A   Clear
3:55 AM 51.8 °F - 39.2 °F 62% 29.66 in 10.0 mi South 17.3 mph - N/A   Clear
4:15 AM 50.0 °F - 39.2 °F 66% 29.65 in 10.0 mi South 17.3 mph - N/A   Clear
4:35 AM 50.0 °F - 39.2 °F 66% 29.66 in 10.0 mi South 16.1 mph - N/A   Clear
4:55 AM 48.2 °F - 39.2 °F 71% 29.65 in 10.0 mi South 15.0 mph - N/A   Clear
5:15 AM 48.2 °F - 39.2 °F 71% 29.65 in 10.0 mi South 15.0 mph - N/A   Clear
5:35 AM 48.2 °F - 39.2 °F 71% 29.65 in 10.0 mi South 13.8 mph - N/A   Clear
5:55 AM 48.2 °F - 39.2 °F 71% 29.65 in 10.0 mi South 15.0 mph - N/A   Clear
6:15 AM 48.2 °F - 39.2 °F 71% 29.65 in 10.0 mi SSW 13.8 mph - N/A   Clear
6:35 AM 46.4 °F 39.8 °F 39.2 °F 76% 29.65 in 10.0 mi SSW 16.1 mph - N/A   Clear
6:55 AM 46.4 °F 40.4 °F 39.2 °F 76% 29.65 in 10.0 mi SSW 13.8 mph 19.6 mph N/A   Clear
7:15 AM 46.4 °F 41.1 °F 39.2 °F 76% 29.65 in 10.0 mi SSW 11.5 mph 16.1 mph N/A   Clear
7:35 AM 44.6 °F 39.7 °F 39.2 °F 81% 29.66 in 10.0 mi SSW 9.2 mph - N/A   Clear
7:55 AM 44.6 °F 38.8 °F 39.2 °F 81% 29.66 in 10.0 mi SSW 11.5 mph - N/A   Clear
8:15 AM 46.4 °F 41.9 °F 39.2 °F 76% 29.67 in 10.0 mi SSW 9.2 mph - N/A   Clear
8:35 AM 48.2 °F - 39.2 °F 71% 29.67 in 10.0 mi SW 9.2 mph - N/A   Clear
8:55 AM 48.2 °F - 41.0 °F 76% 29.67 in 10.0 mi WSW 10.4 mph - N/A   Clear
9:15 AM 51.8 °F - 41.0 °F 67% 29.68 in 10.0 mi WSW 10.4 mph - N/A   Clear
9:35 AM 51.8 °F - 39.2 °F 62% 29.68 in 10.0 mi West 10.4 mph - N/A   Clear
9:55 AM 53.6 °F - 39.2 °F 58% 29.68 in 10.0 mi West 9.2 mph - N/A   Clear
10:15 AM 55.4 °F - 37.4 °F 51% 29.70 in 10.0 mi WNW 15.0 mph 19.6 mph N/A   Clear
10:35 AM 55.4 °F - 35.6 °F 47% 29.70 in 10.0 mi NW 13.8 mph - N/A   Clear
10:55 AM 55.4 °F - 35.6 °F 47% 29.70 in 10.0 mi NW 17.3 mph - N/A   Clear
11:15 AM 55.4 °F - 35.6 °F 47% 29.71 in 10.0 mi NW 20.7 mph 26.5 mph N/A   Clear
11:35 AM 51.8 °F - 35.6 °F 54% 29.72 in 10.0 mi NW 24.2 mph 29.9 mph N/A   Clear
11:55 AM 48.2 °F - 33.8 °F 58% 29.73 in 10.0 mi NW 23.0 mph 29.9 mph N/A   Clear
12:15 PM 50.0 °F - 35.6 °F 58% 29.74 in 10.0 mi NW 24.2 mph 31.1 mph N/A   Clear
12:35 PM 48.2 °F - 33.8 °F 58% 29.76 in 10.0 mi NW 20.7 mph 31.1 mph N/A   Clear
12:55 PM - - - N/A% 29.77 in 10.0 mi NW 28.8 mph 38.0 mph N/A   Clear
1:15 PM 46.4 °F 38.3 °F 32.0 °F 57% 29.79 in 10.0 mi NW 23.0 mph 31.1 mph N/A   Clear
1:35 PM 46.4 °F 38.3 °F 32.0 °F 57% 29.81 in 10.0 mi NW 23.0 mph 32.2 mph N/A   Mostly Cloudy
1:55 PM - - - N/A% 29.81 in 10.0 mi NW 25.3 mph 36.8 mph N/A   Overcast
2:15 PM 46.4 °F 37.9 °F 30.2 °F 53% 29.83 in 10.0 mi NW 25.3 mph 35.7 mph N/A   Overcast
2:35 PM 44.6 °F 35.7 °F 30.2 °F 57% 29.84 in 10.0 mi NW 24.2 mph 35.7 mph N/A   Overcast
2:55 PM 44.6 °F 35.3 °F 30.2 °F 57% 29.85 in 10.0 mi WNW 26.5 mph 35.7 mph N/A   Overcast
3:15 PM 42.8 °F 33.1 °F 30.2 °F 61% 29.87 in 10.0 mi NW 25.3 mph 32.2 mph N/A   Overcast
3:35 PM - - - N/A% 29.89 in 10.0 mi NW 29.9 mph 35.7 mph N/A   Overcast
3:55 PM 39.2 °F 29.0 °F 30.2 °F 70% 29.91 in 10.0 mi NW 21.9 mph 29.9 mph N/A   Overcast
4:15 PM 37.4 °F 26.4 °F 28.4 °F 70% 29.92 in 10.0 mi NW 23.0 mph 32.2 mph N/A   Overcast
4:35 PM 37.4 °F 26.4 °F 28.4 °F 70% 29.93 in 10.0 mi WNW 23.0 mph 31.1 mph N/A   Overcast
4:55 PM 39.2 °F 28.7 °F 28.4 °F 65% 29.94 in 10.0 mi NW 23.0 mph 33.4 mph N/A   Overcast
5:15 PM 39.2 °F 27.8 °F 28.4 °F 65% 29.95 in 10.0 mi WNW 27.6 mph 32.2 mph N/A   Overcast
5:35 PM 39.2 °F 28.3 °F 30.2 °F 70% 29.96 in 10.0 mi WNW 25.3 mph 32.2 mph N/A   Overcast
5:55 PM 39.2 °F 29.6 °F 30.2 °F 70% 29.97 in 10.0 mi WNW 19.6 mph 27.6 mph N/A   Overcast
6:15 PM 39.2 °F 28.0 °F 30.2 °F 70% 29.98 in 10.0 mi WNW 26.5 mph 34.5 mph N/A   Overcast
6:35 PM 39.2 °F 29.3 °F 28.4 °F 65% 29.98 in 10.0 mi NW 20.7 mph 33.4 mph N/A   Overcast
6:55 PM 39.2 °F 29.0 °F 28.4 °F 65% 29.99 in 10.0 mi WNW 21.9 mph 33.4 mph N/A   Overcast
7:15 PM 39.2 °F 28.3 °F 28.4 °F 65% 30.00 in 10.0 mi WNW 25.3 mph 29.9 mph N/A   Overcast
7:35 PM 39.2 °F 28.5 °F 26.6 °F 61% 30.01 in 10.0 mi WNW 24.2 mph 36.8 mph N/A   Overcast
7:55 PM 37.4 °F 25.9 °F 24.8 °F 60% 30.02 in 10.0 mi WNW 25.3 mph 38.0 mph N/A   Overcast
8:15 PM - - - N/A% 30.03 in 10.0 mi WNW 26.5 mph 40.3 mph N/A   Overcast
8:35 PM - - - N/A% 30.03 in 10.0 mi WNW 29.9 mph 35.7 mph N/A   Overcast
8:55 PM - - - N/A% 30.04 in 10.0 mi NW 29.9 mph 36.8 mph N/A   Overcast
9:15 PM - - - N/A% 30.03 in 10.0 mi NW 25.3 mph 34.5 mph N/A   Overcast
9:35 PM 33.8 °F 22.8 °F 21.2 °F 60% 30.03 in 10.0 mi WNW 18.4 mph 29.9 mph N/A   Overcast
9:55 PM 33.8 °F 22.5 °F 21.2 °F 60% 30.04 in 10.0 mi WNW 19.6 mph 29.9 mph N/A   Overcast
10:15 PM 33.8 °F 22.2 °F 21.2 °F 60% 30.04 in 10.0 mi WNW 20.7 mph 26.5 mph N/A   Overcast
10:35 PM 33.8 °F 21.3 °F 21.2 °F 60% 30.04 in 10.0 mi NW 24.2 mph 31.1 mph N/A   Overcast
10:55 PM 32.0 °F 18.9 °F 19.4 °F 60% 30.05 in 10.0 mi WNW 24.2 mph 31.1 mph N/A   Overcast
11:15 PM - - - N/A% 30.06 in 10.0 mi WNW 28.8 mph 34.5 mph N/A   Overcast
11:35 PM - - - N/A% 30.06 in 10.0 mi WNW 26.5 mph 41.4 mph N/A   Overcast
11:55 PM - - - N/A% 30.07 in 10.0 mi WNW 31.1 mph 36.8 mph N/A   Overcast